GFSFLT2_prec_cthk_228.txt.gz
RH
42 40 36 33 32 30 29 30 31 34 33 33 34 37 40 39 37 37 35 32 30 29 28 30 28 26 26 25 24 24 25 27
44 39 32 32 30 29 28 29 29 31 32 34 35 37 41 38 36 36 37 37 33 31 30 30 31 30 29 29 28 27 26 26
41 35 34 31 27 26 26 27 29 32 33 34 36 38 42 39 39 39 38 38 36 35 31 30 31 31 30 29 29 29 29 28
40 38 32 28 26 24 24 25 27 31 32 32 34 38 40 42 42 42 41 39 38 39 36 33 31 30 29 29 29 29 31 32
36 33 29 27 24 24 24 25 26 29 32 33 35 39 43 46 46 46 45 45 47 47 43 41 36 33 31 31 30 29 31 33
35 34 29 25 24 25 25 25 27 28 29 31 34 39 44 48 51 51 50 48 50 55 59 58 53 46 40 35 33 32 33 34
36 36 33 26 25 26 27 27 27 28 28 29 32 36 40 42 46 48 51 52 55 56 58 58 59 56 47 41 38 38 37 36
41 36 33 27 27 29 30 29 28 29 29 30 30 32 36 39 41 43 47 51 55 55 56 56 58 57 56 51 43 41 42 41
33 34 33 32 32 34 36 36 32 30 31 32 32 33 35 36 39 41 46 50 54 54 54 55 56 57 57 58 58 59 60 60
31 31 31 35 40 43 43 39 38 35 33 33 35 36 39 42 46 50 53 53 53 53 54 54 54 54 56 58 59 59 59 59
31 33 36 40 47 60 57 50 43 41 43 42 40 42 44 47 51 53 53 52 52 54 55 56 56 57 57 59 60 59 58 57
36 38 42 44 47 57 57 56 56 53 46 46 47 47 50 50 54 57 56 56 59 61 59 61 58 60 59 62 65 66 64 63
35 39 44 45 51 54 56 56 62 65 58 58 54 54 52 54 55 58 58 59 61 64 61 62 59 62 66 68 74 75 74 70
36 41 40 44 49 49 52 55 55 56 55 53 57 57 57 57 57 61 66 67 68 68 67 63 63 66 69 72 69 67 66 68
35 37 38 43 48 51 55 58 58 57 54 52 63 63 64 60 64 63 67 66 65 64 63 63 64 65 66 64 61 60 53 52
36 35 39 44 46 52 54 54 51 53 55 61 60 63 60 59 62 61 69 66 67 67 57 54 52 51 49 52 53 54 53 52
38 38 40 41 43 45 50 57 60 59 60 62 62 60 55 60 62 63 58 53 44 44 44 44 44 47 47 47 50 52 53 53
42 41 41 42 45 49 54 59 62 66 70 65 62 56 56 57 53 46 41 40 42 42 43 43 43 46 47 48 49 47 48 46
47 46 49 51 53 56 58 61 67 69 70 60 57 55 50 45 42 40 42 44 44 45 45 45 47 47 46 44 43 41 38 37
50 53 54 57 62 65 65 66 69 67 62 61 57 46 42 41 42 43 44 45 44 44 43 42 41 40 39 37 35 34 32 32

GFSFLT2_prec_cthk_234.txt.gz
RH
41 40 44 42 42 41 37 36 35 33 33 32 32 32 31 33 35 35 35 34 30 28 27 28 28 27 26 26 26 25 27 31
45 42 44 46 46 42 38 37 35 33 33 33 33 32 32 33 35 38 37 36 34 32 30 29 30 29 29 29 29 29 33 36
51 49 49 49 43 41 39 38 35 34 33 33 34 35 34 33 36 39 38 39 36 35 33 31 30 30 30 29 29 35 35 39
52 55 52 48 45 38 39 38 35 34 32 32 35 39 37 37 38 40 40 42 43 40 37 34 33 37 35 31 34 33 36 39
48 53 54 45 42 40 38 37 36 36 36 33 38 38 37 39 40 41 42 43 46 45 44 45 44 40 42 39 36 33 39 40
40 42 42 41 45 37 34 34 35 35 36 37 38 38 40 41 43 46 49 49 53 53 55 51 52 52 50 49 44 43 40 43
37 40 38 39 37 36 34 36 28 30 32 29 32 37 38 40 42 46 48 49 51 54 57 55 53 53 53 54 53 46 44 42
37 37 38 36 36 35 35 32 27 29 29 30 30 33 35 38 41 44 45 46 49 51 55 57 57 56 55 54 54 56 55 52
38 39 38 36 35 36 37 36 32 28 29 29 30 31 31 34 39 40 41 43 44 44 49 53 55 55 55 54 52 51 52 54
41 40 39 38 38 39 38 37 33 30 31 32 32 31 32 33 36 38 40 42 44 48 51 56 53 51 53 58 58 52 54 54
43 42 40 39 40 39 39 37 34 36 38 40 35 34 33 34 35 38 42 46 49 50 53 53 50 49 51 53 57 57 55 55
48 46 44 40 41 42 44 42 40 44 47 48 40 38 36 36 40 44 47 48 49 49 52 54 53 53 59 59 60 60 60 62
46 46 48 44 39 41 44 43 46 52 55 56 53 48 49 48 50 52 50 52 51 51 52 55 58 62 62 62 67 67 64 63
44 47 50 45 41 44 48 52 50 56 55 52 55 59 64 57 57 57 56 57 55 53 53 57 59 65 70 66 63 61 58 57
39 43 45 45 46 51 52 57 54 54 53 53 56 58 60 63 61 55 54 57 60 61 60 61 61 63 63 65 64 57 54 48
36 41 46 47 48 51 49 52 50 50 52 55 60 60 62 65 62 58 57 61 62 62 63 65 64 69 69 62 54 53 51 50
35 39 43 47 47 47 51 55 55 54 56 54 61 63 65 66 64 60 58 62 65 69 70 69 66 70 53 47 48 47 47 50
38 38 38 44 46 47 51 55 60 54 56 59 63 64 65 64 66 59 59 61 60 59 61 63 55 46 45 47 47 46 47 51
39 37 37 40 46 49 51 54 60 54 56 59 62 67 67 69 66 67 65 61 58 56 50 42 41 42 40 41 41 48 43 43
42 39 38 40 43 47 49 53 52 52 55 61 68 77 75 68 68 65 58 55 50 45 43 42 40 42 43 44 44 42 41 39

GFSFLT2_prec_cthk_237.txt.gz
RH
29 31 36 39 36 35 35 35 35 32 31 30 30 31 32 32 33 35 34 33 32 29 28 27 28 28 27 26 25 25 28 36
32 36 38 40 40 41 40 37 37 34 32 32 32 30 30 31 32 33 34 34 34 33 30 29 28 28 28 28 28 29 31 42
41 43 40 40 44 45 42 39 37 35 33 33 33 31 31 31 32 34 36 35 37 36 34 31 30 28 27 27 26 37 38 41
47 46 44 43 51 45 42 39 38 36 34 32 33 37 34 35 34 35 38 37 39 40 39 36 34 40 37 31 34 34 32 40
50 49 50 51 53 47 42 42 40 36 36 33 35 42 39 38 38 35 38 40 42 43 44 43 49 47 46 41 40 34 40 42
52 55 52 52 56 49 44 44 41 37 36 37 37 43 44 39 44 40 43 45 50 53 56 55 54 51 52 53 53 50 49 46
49 55 52 50 50 53 50 47 44 42 41 39 39 42 43 40 44 46 48 51 53 55 57 57 57 55 51 51 52 50 47 47
42 47 47 46 50 52 50 47 47 43 42 41 36 43 43 42 43 44 46 50 51 52 55 55 56 58 56 55 53 53 52 52
43 42 43 45 45 48 45 47 47 39 38 33 32 37 42 41 44 42 44 46 46 46 47 49 53 55 61 62 57 55 52 51
47 45 43 45 45 44 47 47 44 40 41 31 30 35 40 40 43 42 43 44 45 46 46 51 54 63 65 59 57 59 58 58
49 47 45 46 46 45 45 45 43 44 40 37 31 35 40 41 42 42 40 40 46 46 48 58 58 62 59 54 54 56 62 63
52 50 48 48 48 45 45 46 44 44 42 38 40 38 43 44 45 42 41 42 47 51 52 52 54 59 60 58 60 61 62 65
48 50 50 50 48 44 43 42 44 45 41 43 45 48 50 52 52 49 47 50 52 52 56 54 60 66 64 69 67 65 65 61
45 47 47 50 49 47 44 43 46 46 46 49 51 51 57 56 55 63 59 57 58 66 68 69 63 64 64 66 65 68 64 66
40 43 45 47 50 53 51 49 51 52 47 48 55 55 52 54 59 63 65 61 60 62 62 62 64 66 64 64 65 66 64 61
33 39 46 46 50 53 54 48 47 46 50 49 55 55 53 58 63 63 64 63 60 60 60 63 63 66 69 69 71 68 54 49
32 35 42 49 48 51 49 51 52 54 57 52 51 56 58 67 68 67 63 63 63 60 60 66 70 68 71 70 66 47 46 46
31 34 38 45 49 48 52 48 53 54 55 51 54 58 61 67 69 65 65 71 69 63 66 64 70 70 66 55 46 50 51 52
30 34 36 42 47 44 51 50 54 52 54 54 59 59 64 70 68 71 74 74 69 70 66 63 64 62 47 48 48 48 49 48
31 34 35 40 48 45 45 53 56 58 52 55 64 58 64 69 72 73 76 73 70 66 59 55 45 44 41 44 50 49 47 48

GFSFLT2_prec_cthk_240.txt.gz
RH
28 26 26 31 35 38 35 32 33 31 28 26 27 28 29 29 31 32 33 31 30 27 27 26 25 25 25 25 25 25 32 36
30 28 27 32 38 36 35 34 34 33 29 27 27 28 28 28 29 32 33 32 32 32 29 27 27 25 25 25 26 30 36 40
29 28 30 33 37 36 38 39 36 33 30 28 27 28 27 28 30 31 34 34 32 34 32 31 28 27 25 24 27 34 35 42
31 32 33 35 35 36 39 41 37 34 31 29 28 27 26 28 29 30 33 36 35 36 37 35 34 35 36 32 35 34 34 41
38 36 37 37 36 37 41 41 36 34 32 30 29 30 29 32 30 31 32 36 38 40 41 43 46 44 48 47 45 40 44 47
40 39 40 39 43 41 43 38 35 34 31 30 30 33 33 33 32 33 32 36 39 44 48 52 51 51 49 48 47 45 50 49
44 44 43 42 46 44 41 37 36 35 34 31 30 33 35 36 36 34 34 38 42 48 51 54 53 52 51 50 51 47 46 45
45 45 49 47 45 46 39 42 40 38 38 36 32 32 38 37 36 38 39 42 47 47 48 49 50 52 53 53 53 50 49 48
45 44 48 51 47 49 44 43 44 43 43 41 39 34 41 40 37 40 42 44 47 45 48 51 50 51 54 59 60 58 53 52
44 42 45 45 46 49 50 47 46 47 44 44 42 37 37 42 41 41 41 44 44 45 46 47 49 50 57 62 57 54 55 56
42 42 44 44 45 46 50 47 46 43 45 42 41 36 35 39 39 42 41 42 43 44 47 46 51 60 58 56 53 53 52 55
42 43 44 43 44 46 47 48 48 43 41 38 37 36 33 38 40 40 43 42 42 47 47 47 57 55 55 59 63 60 63 62
42 43 44 44 43 44 45 43 45 44 41 39 38 34 33 37 42 46 52 50 47 51 52 58 60 65 67 74 73 70 68 64
42 39 42 44 45 44 47 45 45 44 42 40 42 37 38 41 45 53 56 58 60 62 63 66 74 78 66 67 68 67 71 71
38 39 38 41 42 48 50 51 50 44 41 41 44 41 46 47 49 52 56 61 63 64 67 71 75 69 68 65 67 67 70 69
38 38 40 39 41 46 46 45 44 43 43 41 45 46 48 51 51 50 54 62 63 66 69 69 73 65 63 63 66 69 71 76
36 39 39 40 41 41 44 48 47 48 48 43 47 51 49 51 52 55 60 62 64 66 62 66 65 63 65 67 68 68 67 53
32 37 42 40 39 40 41 44 49 54 50 47 48 52 53 49 49 55 57 60 63 63 65 71 74 63 63 65 69 60 47 46
32 34 38 43 43 39 42 42 49 56 51 49 49 51 54 51 52 55 57 63 65 69 71 71 73 67 65 62 60 46 47 47
33 31 34 40 46 41 41 43 46 56 57 52 49 50 53 55 62 61 63 68 71 74 78 76 68 62 63 52 47 45 47 46

GFSFLT2_prec_cthk_246.txt.gz
RH
23 24 28 31 34 35 36 37 33 30 30 29 23 22 25 26 26 26 24 23 23 24 24 24 23 22 23 24 31 34 33 35
21 23 27 31 34 35 36 38 34 31 31 29 23 21 22 24 25 26 27 25 24 23 24 24 24 24 24 23 25 33 34 36
22 23 26 30 32 34 37 39 36 33 33 30 24 21 20 22 23 25 27 28 27 26 25 26 25 24 24 26 28 34 35 37
25 23 25 28 32 34 38 40 38 35 36 31 24 21 21 20 22 24 26 28 29 28 30 29 27 27 26 31 35 40 42 43
27 24 25 27 31 36 37 39 37 36 37 31 25 22 21 20 21 22 25 27 29 32 34 35 36 38 37 35 36 36 41 43
30 27 25 27 30 33 33 35 35 36 38 31 26 22 22 21 21 23 25 26 29 33 36 39 42 44 44 43 41 39 41 43
32 28 26 26 28 30 32 33 33 35 37 31 28 25 22 22 22 23 24 26 28 33 38 43 47 47 44 46 45 43 43 45
33 33 29 28 29 30 31 32 33 36 37 30 29 29 26 23 24 24 26 25 27 33 40 42 42 44 45 46 48 50 50 51
34 31 31 30 29 29 31 32 34 36 35 28 29 30 29 28 25 28 28 28 32 35 38 40 39 39 43 46 52 57 58 50
34 36 33 30 31 31 31 33 35 37 34 29 31 32 32 33 31 29 30 31 33 34 37 38 39 40 45 53 58 58 54 52
34 38 41 34 34 35 34 36 37 38 35 35 33 34 35 36 35 34 32 33 34 36 37 38 40 43 45 52 53 55 68 76
36 36 40 44 38 38 40 40 40 41 38 37 37 36 37 39 39 40 36 34 36 37 40 43 45 45 50 56 59 66 77 72
38 38 39 46 41 37 40 42 43 43 40 39 41 38 37 39 40 40 38 35 37 40 47 50 53 59 62 65 68 77 75 78
36 38 39 40 43 36 39 41 41 41 41 41 43 41 41 41 42 42 40 37 38 46 52 57 59 61 63 72 75 81 80 68
33 35 37 38 40 46 43 46 46 45 43 44 45 46 45 44 43 43 42 40 41 46 51 54 56 59 64 70 75 79 70 67
26 33 34 36 40 44 44 38 40 41 44 48 50 49 47 46 45 43 46 43 45 46 50 52 52 57 67 68 70 69 68 69
23 28 32 35 37 39 40 39 38 42 47 47 50 51 49 48 47 44 46 47 47 47 50 53 57 62 65 67 71 71 72 70
26 25 29 33 34 38 40 38 38 42 43 44 46 49 51 50 48 44 44 49 52 53 54 55 58 62 65 67 69 71 71 78
30 29 28 31 33 36 37 39 41 39 37 38 42 44 47 48 50 48 46 48 52 59 57 55 59 65 69 72 79 78 77 75
29 30 29 29 32 34 37 39 42 41 40 37 38 40 40 46 53 53 52 52 53 56 58 59 65 71 71 75 79 78 73 73